CW5229 Weather Reports


Display with metric or nautical units.
time (UTC)temp
F
wind
direction
speed
MPH
gust
MPH
rain 1hr
in
rain 24hr
in
rain mn
in
humidity
%
barometer
mb
20260903153004 92 167 1.0 6.0 0.00 0.00 0.00 64 1011.4
20260903151503 92 264 0.0 5.0 0.00 0.00 0.00 63 1011.6
20260903150000 91 136 0.0 2.0 0.00 0.00 0.00 65 1011.5
20260903144603 90 306 1.0 6.0 0.00 0.00 0.00 64 1011.5
20260903143102 89 274 1.0 8.0 0.00 0.00 0.00 65 1011.5
20260903141603 89 165 0.0 3.0 0.00 0.00 0.00 66 1011.5
20260903140029 87 158 0.0 3.0 0.00 0.00 0.00 69 1011.5
20260903134528 86 251 0.0 3.0 0.00 0.00 0.00 72 1011.5
20260903133027 84 151 1.0 5.0 0.00 0.00 0.00 73 1011.6
20260903131524 83 259 1.0 5.0 0.00 0.00 0.00 75 1011.7
20260903130023 82 209 0.0 5.0 0.00 0.00 0.00 76 1011.7
20260903124525 82 219 0.0 0.0 0.00 0.00 0.00 78 1011.9
20260903123028 80 159 0.0 0.0 0.00 0.00 0.00 80 1011.9
20260903121519 78 165 0.0 0.0 0.00 0.00 0.00 83 1011.9
20260903120019 0 0.0 0.0 0.00 0.00 0.00 1011.9
20260903114520 0 0.0 0.0 0.00 0.00 0.00 1011.8
20260903113016 0 0.0 0.0 0.00 0.00 0.00 1011.7
20260903111515 0 0.0 0.0 0.00 0.00 0.00 1011.7
20260903110013 0 0.0 0.0 0.00 0.00 0.00 1011.5
20260903104510 77 255 0.0 2.0 0.00 0.00 0.00 83 1011.4
20260903103007 77 186 0.0 2.0 0.00 0.00 0.00 83 1011.5
20260903101506 77 162 0.0 3.0 0.00 0.00 0.00 83 1011.3
20260903100016 77 226 0.0 2.0 0.00 0.00 0.00 84 1011.4
20260903094505 77 262 0.0 2.0 0.00 0.00 0.00 84 1011.4
20260903093127 77 233 0.0 1.0 0.00 0.00 0.00 84 1011.3
20260903091600 77 184 0.0 1.0 0.00 0.00 0.00 83 1011.2
20260903084559 78 149 0.0 1.0 0.00 0.00 0.00 83 1011.2
20260903083028 77 201 0.0 0.0 0.00 0.00 0.00 84 1011.2
20260903081535 77 223 0.0 0.0 0.00 0.00 0.00 86 1011.2
20260903080024 76 212 0.0 0.0 0.00 0.00 0.00 87 1011.2
20260903074527 76 212 0.0 0.0 0.00 0.00 0.00 88 1011.2
20260903073024 76 212 0.0 0.0 0.00 0.00 0.00 89 1011.1
20260903071523 76 212 0.0 0.0 0.00 0.00 0.00 89 1011.1
20260903070034 77 212 0.0 0.0 0.00 0.00 0.00 88 1011.1
20260903064516 78 212 0.0 0.0 0.00 0.00 0.00 88 1011.1
20260903063014 78 213 0.0 1.0 0.00 0.00 0.00 88 1011.1
20260903061514 78 195 0.0 0.0 0.00 0.00 0.00 87 1011.1
20260903060015 78 163 0.0 0.0 0.00 0.00 0.00 87 1011.2
20260903054512 78 195 0.0 1.0 0.00 0.00 0.00 88 1011.2
20260903053008 78 195 0.0 1.0 0.00 0.00 0.00 88 1011.2
20260903051510 78 212 0.0 1.0 0.00 0.00 0.00 88 1011.1
20260903050042 78 241 0.0 0.0 0.00 0.00 0.00 88 1010.9
20260903044544 78 258 0.0 1.0 0.00 0.00 0.00 88 1010.9
20260903043004 79 257 0.0 1.0 0.00 0.00 0.00 87 1010.8
20260903041504 79 257 0.0 0.0 0.00 0.00 0.00 87 1011.0
20260903040036 79 163 0.0 0.0 0.00 0.00 0.00 86 1010.9
20260903034530 80 241 0.0 2.0 0.00 0.00 0.00 86 1010.8
20260903033024 80 168 0.0 0.0 0.00 0.00 0.00 85 1010.8
20260903031522 81 168 0.0 0.0 0.00 0.00 0.00 83 1010.8
20260903030018 82 134 0.0 1.0 0.00 0.00 0.00 82 1010.7
20260903024518 82 246 0.0 2.0 0.00 0.00 0.00 82 1010.6
20260903023031 82 257 0.0 2.0 0.00 0.00 0.00 82 1010.7
20260903021548 83 206 0.0 3.0 0.00 0.00 0.00 81 1010.6
20260903020043 83 142 0.0 2.0 0.00 0.00 0.00 80 1010.7
20260903014511 84 290 0.0 1.0 0.00 0.00 0.00 79 1010.5
20260903013010 84 303 0.0 1.0 0.00 0.00 0.00 78 1010.4
20260903011505 85 134 0.0 2.0 0.00 0.00 0.00 76 1010.3
20260903010003 86 252 0.0 1.0 0.00 0.00 0.00 75 1010.2
20260903004602 86 187 0.0 3.0 0.00 0.00 0.00 74 1010.1
20260903003110 87 193 0.0 4.0 0.00 0.00 0.00 72 1010.0
20260903001550 88 229 0.0 2.0 0.00 0.00 0.00 70 1010.1
20260903000057 89 153 0.0 4.0 0.00 0.00 0.00 69 1010.1
20260902234542 90 270 0.0 4.0 0.00 0.00 0.00 68 1010.2
20260902233043 91 273 0.0 2.0 0.00 0.00 0.00 66 1010.3
20260902231511 91 251 0.0 5.0 0.00 0.00 0.00 64 1010.2
20260902230006 92 159 0.0 4.0 0.00 0.00 0.00 64 1010.2
20260902224503 93 218 1.0 6.0 0.00 0.00 0.00 63 1010.3
20260902223007 93 262 1.0 7.0 0.00 0.00 0.00 62 1010.4
20260902221608 94 247 1.0 8.0 0.00 0.00 0.00 61 1010.4
20260902220056 96 266 2.0 5.0 0.00 0.00 0.00 57 1010.4
20260902214617 96 255 3.0 11.0 0.00 0.00 0.00 57 1010.5
20260902213053 96 303 2.0 5.0 0.00 0.00 0.00 56 1010.6
20260902211553 96 176 1.0 5.0 0.00 0.00 0.00 57 1010.5
20260902210053 95 117 1.0 4.0 0.00 0.00 0.00 59 1010.6
20260902204548 95 211 2.0 9.0 0.00 0.00 0.00 57 1010.7
20260902203046 97 290 1.0 5.0 0.00 0.00 0.00 54 1010.7
20260902201557 96 247 2.0 7.0 0.00 0.00 0.00 58 1010.7
20260902200047 97 169 1.0 6.0 0.00 0.00 0.00 56 1010.9
20260902194546 97 237 2.0 7.0 0.00 0.00 0.00 53 1011.0
20260902193037 97 193 1.0 4.0 0.00 0.00 0.00 56 1011.2
20260902191535 97 238 1.0 7.0 0.00 0.00 0.00 55 1011.3
20260902190031 97 236 1.0 5.0 0.00 0.00 0.00 55 1011.5
20260902184526 97 198 2.0 5.0 0.00 0.00 0.00 58 1011.7
20260902183023 96 259 0.0 5.0 0.00 0.00 0.00 58 1011.5
20260902181521 96 158 1.0 5.0 0.00 0.00 0.00 58 1011.7
20260902180019 95 184 2.0 9.0 0.00 0.00 0.00 56 1011.7
20260902174551 95 167 1.0 5.0 0.00 0.00 0.00 59 1011.9
20260902173045 95 230 1.0 5.0 0.00 0.00 0.00 60 1012.0
20260902171512 94 310 1.0 5.0 0.00 0.00 0.00 61 1012.2
20260902170009 94 259 0.0 6.0 0.00 0.00 0.00 60 1012.1
20260902164513 93 284 1.0 6.0 0.00 0.00 0.00 62 1012.4
20260902163008 93 241 1.0 4.0 0.00 0.00 0.00 61 1012.5
20260902161517 92 292 2.0 4.0 0.00 0.00 0.00 62 1012.4
20260902160008 91 163 0.0 3.0 0.00 0.00 0.00 64 1012.3
20260902154510 90 133 1.0 5.0 0.00 0.00 0.00 66 1012.3